Orbital Elements at Epoch 2459200.5 (2020-Dec-17.0) TDB
Reference: JPL 25 (heliocentric ecliptic J2000)
Element | Value | Uncertainty (1-sigma) | Units |
e | .1401691423418594 | 4.1594e-08 | |
a | 2.282487442755095 | 7.4496e-09 | au |
q | 1.962553135498049 | 9.5713e-08 | au |
i | 4.951960672987314 | 3.7335e-06 | deg |
node | 272.0947185443492 | 5.4629e-05 | deg |
peri | 296.7530282663924 | 5.6802e-05 | deg |
M | .06064546909533624 | 1.6523e-05 | deg |
tp | 2459200.287818809814 (2020-Dec-16.78781881) | 5.781e-05 | TDB |
period | 1259.537268097099 3.45 | 6.1663e-06 1.688e-08 | d yr |
n | .2858192521320832 | 1.3993e-09 | deg/d |
Q | 2.60242175001214 | 8.4938e-09 | au |
|
| | Orbit Determination Parameters
Additional Information
|